Location: Presov
(49.0000°N, 21.2500°E)
Time: 00:01:22
(UTC+02:00)

Transit 2A Rocket - Pass Details

Date: 17 April 2021
Orbit: 594 x 908 km, 66.7° (Epoch: 05 May)

Event Time Altitude Azimuth Distance (km) Brightness Sun altitude
Rises 00:16:13 0° 327° (NNW) 2,856 8.9 -30.4°
Reaches altitude 10° 00:18:33 10° 335° (NNW) 1,967 7.9 -30.4°
Enters shadow 00:21:45 35° 15° (NNE) 1,005 6.0 -30.5°
Maximum altitude 00:22:43 40° 46° (NE) 926 - -30.5°
Drops below altitude 10° 00:27:07 10° 117° (ESE) 2,076 - -30.5°
Sets 00:29:37 0° 125° (SE) 3,035 - -30.5°
